Time,TemperatureF,DewpointF,PressureIn,WindDirection,WindDirectionDegrees,WindSpeedMPH,WindSpeedGustMPH,Humidity,HourlyPrecipIn,Conditions,Clouds,dailyrainin,SolarRadiationWatts/m^2,SoftwareType,DateUTC
2013-10-30 00:02:00,61.7,54.4,30.01,ENE,58,21.0,27.0,77,0.00,,,0.00,0,Wunderground v.1.15,2013-10-29 23:02:00,
2013-10-30 00:08:00,61.8,54.2,30.00,ENE,67,22.0,27.0,76,0.00,,,0.00,0,Wunderground v.1.15,2013-10-29 23:08:00,
2013-10-30 00:16:00,61.7,53.7,30.01,East,98,26.0,43.0,75,0.00,,,0.00,0,Wunderground v.1.15,2013-10-29 23:16:00,
2013-10-30 00:22:00,61.6,53.6,30.01,ESE,102,24.0,25.0,75,0.00,,,0.00,0,Wunderground v.1.15,2013-10-29 23:22:00,
2013-10-30 00:28:00,61.6,53.6,30.01,ENE,74,20.0,27.0,75,0.00,,,0.00,0,Wunderground v.1.15,2013-10-29 23:28:00,
2013-10-30 00:36:00,61.6,53.6,30.01,ENE,69,18.0,22.0,75,0.00,,,0.00,0,Wunderground v.1.15,2013-10-29 23:36:00,
2013-10-30 00:42:00,61.6,53.6,30.02,ENE,63,18.0,37.0,75,0.00,,,0.00,0,Wunderground v.1.15,2013-10-29 23:42:00,
2013-10-30 00:48:00,61.5,53.5,30.02,East,82,17.0,37.0,75,0.00,,,0.00,0,Wunderground v.1.15,2013-10-29 23:48:00,
2013-10-30 00:54:00,61.6,53.2,30.02,East,93,18.0,33.0,74,0.00,,,0.00,0,Wunderground v.1.15,2013-10-29 23:54:00,
2013-10-30 01:00:00,61.6,53.2,30.03,ENE,76,18.0,21.0,74,0.00,,,0.00,0,Wunderground v.1.15,2013-10-30 00:00:00,
2013-10-30 01:06:00,61.6,53.2,30.02,ENE,72,16.0,25.0,74,0.00,,,0.00,0,Wunderground v.1.15,2013-10-30 00:06:00,
2013-10-30 01:12:00,61.6,52.9,30.02,NE,51,17.0,21.0,73,0.00,,,0.00,0,Wunderground v.1.15,2013-10-30 00:12:00,
2013-10-30 01:18:00,61.6,52.9,30.02,East,84,19.0,34.0,73,0.00,,,0.00,0,Wunderground v.1.15,2013-10-30 00:18:00,
2013-10-30 01:24:00,61.6,52.5,30.02,ENE,78,18.0,25.0,72,0.00,,,0.00,0,Wunderground v.1.15,2013-10-30 00:24:00,
2013-10-30 01:30:00,61.5,52.4,30.02,East,86,15.0,15.0,72,0.00,,,0.00,0,Wunderground v.1.15,2013-10-30 00:30:00,
2013-10-30 01:36:00,61.5,52.4,30.02,ENE,60,15.0,15.0,72,0.00,,,0.00,0,Wunderground v.1.15,2013-10-30 00:36:00,
2013-10-30 01:42:00,61.6,52.1,30.02,East,84,18.0,22.0,71,0.00,,,0.00,0,Wunderground v.1.15,2013-10-30 00:42:00,
2013-10-30 01:48:00,61.7,52.2,30.02,ENE,75,20.0,32.0,71,0.00,,,0.00,0,Wunderground v.1.15,2013-10-30 00:48:00,
2013-10-30 01:56:00,61.8,52.7,30.02,East,83,21.0,30.0,72,0.00,,,0.00,0,Wunderground v.1.15,2013-10-30 00:56:00,
2013-10-30 02:02:00,61.7,52.6,30.02,ENE,78,19.0,23.0,72,0.00,,,0.00,0,Wunderground v.1.15,2013-10-30 01:02:00,
2013-10-30 02:08:00,61.7,52.6,30.01,ENE,60,21.0,32.0,72,0.00,,,0.00,0,Wunderground v.1.15,2013-10-30 01:08:00,
2013-10-30 02:16:00,61.6,52.5,30.01,East,97,20.0,22.0,72,0.00,,,0.00,0,Wunderground v.1.15,2013-10-30 01:16:00,
2013-10-30 02:22:00,61.6,52.1,30.02,ENE,69,20.0,31.0,71,0.00,,,0.00,0,Wunderground v.1.15,2013-10-30 01:22:00,
2013-10-30 02:28:00,61.6,52.1,30.02,ENE,70,20.0,31.0,71,0.00,,,0.00,0,Wunderground v.1.15,2013-10-30 01:28:00,
2013-10-30 02:36:00,61.6,51.7,30.02,East,87,21.0,30.0,70,0.00,,,0.00,0,Wunderground v.1.15,2013-10-30 01:36:00,
2013-10-30 02:42:00,61.7,51.8,30.02,East,91,20.0,21.0,70,0.00,,,0.00,0,Wunderground v.1.15,2013-10-30 01:42:00,
2013-10-30 02:48:00,61.6,51.7,30.02,East,94,18.0,23.0,70,0.00,,,0.00,0,Wunderground v.1.15,2013-10-30 01:48:00,
2013-10-30 02:56:00,61.5,51.6,30.03,ENE,76,17.0,22.0,70,0.00,,,0.00,0,Wunderground v.1.15,2013-10-30 01:56:00,
2013-10-30 03:02:00,61.6,51.7,30.03,ESE,123,18.0,19.0,70,0.00,,,0.00,0,Wunderground v.1.15,2013-10-30 02:02:00,
2013-10-30 03:08:00,61.5,51.6,30.02,ENE,78,18.0,24.0,70,0.00,,,0.00,0,Wunderground v.1.15,2013-10-30 02:08:00,
2013-10-30 03:16:00,61.5,51.6,30.02,ENE,78,19.0,23.0,70,0.00,,,0.00,0,Wunderground v.1.15,2013-10-30 02:16:00,
2013-10-30 03:22:00,61.5,51.2,30.02,East,85,18.0,32.0,69,0.00,,,0.00,0,Wunderground v.1.15,2013-10-30 02:22:00,
2013-10-30 03:28:00,61.5,51.2,30.02,East,79,18.0,32.0,69,0.00,,,0.00,0,Wunderground v.1.15,2013-10-30 02:28:00,
2013-10-30 03:36:00,61.6,51.3,30.03,ENE,66,21.0,25.0,69,0.00,,,0.00,0,Wunderground v.1.15,2013-10-30 02:36:00,
2013-10-30 03:42:00,61.4,51.1,30.03,East,80,19.0,19.0,69,0.00,,,0.00,0,Wunderground v.1.15,2013-10-30 02:42:00,
2013-10-30 03:48:00,61.4,51.1,30.03,ENE,74,17.0,26.0,69,0.00,,,0.00,0,Wunderground v.1.15,2013-10-30 02:48:00,
2013-10-30 03:56:00,61.4,51.1,30.03,East,80,19.0,22.0,69,0.00,,,0.00,0,Wunderground v.1.15,2013-10-30 02:56:00,
2013-10-30 04:02:00,61.3,50.6,30.03,East,90,21.0,21.0,68,0.00,,,0.00,0,Wunderground v.1.15,2013-10-30 03:02:00,
2013-10-30 04:08:00,61.3,50.6,30.02,East,91,20.0,25.0,68,0.00,,,0.00,0,Wunderground v.1.15,2013-10-30 03:08:00,
2013-10-30 04:16:00,61.1,50.5,30.01,ESE,123,19.0,28.0,68,0.00,,,0.00,0,Wunderground v.1.15,2013-10-30 03:16:00,
2013-10-30 04:22:00,61.0,50.4,30.01,ENE,76,20.0,26.0,68,0.00,,,0.00,0,Wunderground v.1.15,2013-10-30 03:22:00,
2013-10-30 04:28:00,60.9,50.3,30.02,ENE,77,18.0,26.0,68,0.00,,,0.00,0,Wunderground v.1.15,2013-10-30 03:28:00,
2013-10-30 04:36:00,60.9,50.3,30.02,East,93,19.0,32.0,68,0.00,,,0.00,0,Wunderground v.1.15,2013-10-30 03:36:00,
2013-10-30 04:42:00,60.8,49.8,30.03,East,86,19.0,30.0,67,0.00,,,0.00,0,Wunderground v.1.15,2013-10-30 03:42:00,
2013-10-30 04:48:00,60.9,49.9,30.03,ENE,76,20.0,30.0,67,0.00,,,0.00,0,Wunderground v.1.15,2013-10-30 03:48:00,
2013-10-30 04:56:00,60.8,50.2,30.03,ENE,78,17.0,34.0,68,0.00,,,0.00,0,Wunderground v.1.15,2013-10-30 03:56:00,
2013-10-30 05:02:00,60.7,50.1,30.02,East,88,17.0,28.0,68,0.00,,,0.00,0,Wunderground v.1.15,2013-10-30 04:02:00,
2013-10-30 05:06:00,60.7,50.1,30.02,ENE,74,18.0,28.0,68,0.00,,,0.00,0,Wunderground v.1.15,2013-10-30 04:06:00,
2013-10-30 05:12:00,60.6,50.0,30.02,East,82,19.0,23.0,68,0.00,,,0.00,0,Wunderground v.1.15,2013-10-30 04:12:00,
2013-10-30 05:16:00,60.6,50.0,30.02,East,83,18.0,23.0,68,0.00,,,0.00,0,Wunderground v.1.15,2013-10-30 04:16:00,
2013-10-30 05:20:00,60.7,49.7,30.03,East,99,19.0,19.0,67,0.00,,,0.00,0,Wunderground v.1.15,2013-10-30 04:20:00,
2013-10-30 05:26:00,60.7,50.1,30.03,East,91,19.0,19.0,68,0.00,,,0.00,0,Wunderground v.1.15,2013-10-30 04:26:00,
2013-10-30 05:28:00,60.7,50.1,30.03,ENE,69,18.0,27.0,68,0.00,,,0.00,0,Wunderground v.1.15,2013-10-30 04:28:00,
2013-10-30 05:30:00,60.7,50.1,30.03,East,88,19.0,33.0,68,0.00,,,0.00,0,Wunderground v.1.15,2013-10-30 04:30:00,
2013-10-30 05:36:00,60.7,50.1,30.03,ENE,74,20.0,33.0,68,0.00,,,0.00,0,Wunderground v.1.15,2013-10-30 04:36:00,
2013-10-30 05:42:00,60.7,49.7,30.03,ESE,115,19.0,23.0,67,0.00,,,0.00,0,Wunderground v.1.15,2013-10-30 04:42:00,
2013-10-30 05:48:00,60.7,49.7,30.03,ENE,71,20.0,26.0,67,0.00,,,0.00,0,Wunderground v.1.15,2013-10-30 04:48:00,
2013-10-30 05:56:00,60.7,50.1,30.04,East,84,19.0,25.0,68,0.00,,,0.00,0,Wunderground v.1.15,2013-10-30 04:56:00,
2013-10-30 06:02:00,60.7,49.7,30.04,East,94,19.0,19.0,67,0.00,,,0.00,0,Wunderground v.1.15,2013-10-30 05:02:00,
2013-10-30 06:08:00,60.6,49.6,30.04,ENE,64,19.0,31.0,67,0.00,,,0.00,0,Wunderground v.1.15,2013-10-30 05:08:00,
2013-10-30 06:16:00,60.6,49.6,30.03,NE,52,19.0,26.0,67,0.00,,,0.00,0,Wunderground v.1.15,2013-10-30 05:16:00,
2013-10-30 06:22:00,60.5,49.5,30.03,East,96,19.0,19.0,67,0.00,,,0.00,0,Wunderground v.1.15,2013-10-30 05:22:00,
2013-10-30 06:28:00,60.5,49.5,30.03,ENE,77,20.0,37.0,67,0.00,,,0.00,0,Wunderground v.1.15,2013-10-30 05:28:00,
2013-10-30 06:34:00,60.5,49.9,30.03,ENE,71,21.0,25.0,68,0.00,,,0.00,0,Wunderground v.1.15,2013-10-30 05:34:00,
2013-10-30 06:40:00,60.5,49.1,30.02,East,86,24.0,32.0,66,0.00,,,0.00,0,Wunderground v.1.15,2013-10-30 05:40:00,
2013-10-30 06:46:00,60.5,49.1,30.02,SE,130,24.0,32.0,66,0.00,,,0.00,0,Wunderground v.1.15,2013-10-30 05:46:00,
2013-10-30 06:52:00,60.5,49.1,30.02,East,89,22.0,23.0,66,0.00,,,0.00,0,Wunderground v.1.15,2013-10-30 05:52:00,
2013-10-30 06:58:00,60.4,49.0,30.03,ENE,69,22.0,26.0,66,0.00,,,0.00,0,Wunderground v.1.15,2013-10-30 05:58:00,
2013-10-30 07:06:00,60.2,48.4,30.03,East,85,21.0,25.0,65,0.00,,,0.00,0,Wunderground v.1.15,2013-10-30 06:06:00,
2013-10-30 07:12:00,60.3,48.5,30.03,ESE,102,21.0,29.0,65,0.00,,,0.00,0,Wunderground v.1.15,2013-10-30 06:12:00,
2013-10-30 07:18:00,60.3,48.5,30.03,NNE,25,21.0,29.0,65,0.00,,,0.00,0,Wunderground v.1.15,2013-10-30 06:18:00,
2013-10-30 07:26:00,60.3,48.9,30.03,East,91,20.0,20.0,66,0.00,,,0.00,9,Wunderground v.1.15,2013-10-30 06:26:00,
2013-10-30 07:32:00,60.2,48.4,30.03,ENE,65,20.0,34.0,65,0.00,,,0.00,12,Wunderground v.1.15,2013-10-30 06:32:00,
2013-10-30 07:38:00,60.3,48.1,30.03,ENE,78,23.0,34.0,64,0.00,,,0.00,14,Wunderground v.1.15,2013-10-30 06:38:00,
2013-10-30 07:46:00,60.3,48.9,30.04,East,83,22.0,23.0,66,0.00,,,0.00,19,Wunderground v.1.15,2013-10-30 06:46:00,
2013-10-30 07:52:00,60.3,48.5,30.04,East,83,21.0,21.0,65,0.00,,,0.00,19,Wunderground v.1.15,2013-10-30 06:52:00,
2013-10-30 07:58:00,60.4,48.6,30.04,East,79,22.0,27.0,65,0.00,,,0.00,21,Wunderground v.1.15,2013-10-30 06:58:00,
2013-10-30 08:06:00,60.4,47.7,30.05,East,90,22.0,32.0,63,0.00,,,0.00,25,Wunderground v.1.15,2013-10-30 07:06:00,
2013-10-30 08:12:00,60.4,47.7,30.05,East,86,23.0,23.0,63,0.00,,,0.00,37,Wunderground v.1.15,2013-10-30 07:12:00,
2013-10-30 08:18:00,60.4,48.2,30.06,ENE,77,22.0,24.0,64,0.00,,,0.00,42,Wunderground v.1.15,2013-10-30 07:18:00,
2013-10-30 08:26:00,60.5,48.3,30.05,ESE,103,24.0,25.0,64,0.00,,,0.00,107,Wunderground v.1.15,2013-10-30 07:26:00,
2013-10-30 08:32:00,60.8,48.1,30.05,East,80,23.0,26.0,63,0.00,,,0.00,74,Wunderground v.1.15,2013-10-30 07:32:00,
2013-10-30 08:38:00,61.1,48.0,30.05,East,92,24.0,38.0,62,0.00,,,0.00,172,Wunderground v.1.15,2013-10-30 07:38:00,
2013-10-30 08:46:00,61.5,47.9,30.05,SE,132,28.0,31.0,61,0.00,,,0.00,202,Wunderground v.1.15,2013-10-30 07:46:00,
2013-10-30 08:52:00,61.8,48.2,30.04,East,86,27.0,38.0,61,0.00,,,0.00,246,Wunderground v.1.15,2013-10-30 07:52:00,
2013-10-30 08:58:00,62.2,47.7,30.05,ENE,69,27.0,39.0,59,0.00,,,0.00,269,Wunderground v.1.15,2013-10-30 07:58:00,
2013-10-30 09:06:00,62.5,47.5,30.05,ENE,67,25.0,28.0,58,0.00,,,0.00,276,Wunderground v.1.15,2013-10-30 08:06:00,
2013-10-30 09:12:00,62.6,47.1,30.05,ESE,109,28.0,28.0,57,0.00,,,0.00,306,Wunderground v.1.15,2013-10-30 08:12:00,
2013-10-30 09:18:00,62.8,47.8,30.06,East,82,28.0,32.0,58,0.00,,,0.00,316,Wunderground v.1.15,2013-10-30 08:18:00,
2013-10-30 09:26:00,63.1,48.1,30.06,East,83,23.0,27.0,58,0.00,,,0.00,353,Wunderground v.1.15,2013-10-30 08:26:00,
2013-10-30 09:32:00,63.4,47.4,30.06,ENE,67,23.0,25.0,56,0.00,,,0.00,378,Wunderground v.1.15,2013-10-30 08:32:00,
2013-10-30 09:38:00,63.5,47.0,30.07,East,84,24.0,33.0,55,0.00,,,0.00,390,Wunderground v.1.15,2013-10-30 08:38:00,
2013-10-30 09:46:00,63.6,46.6,30.07,ENE,76,27.0,39.0,54,0.00,,,0.00,420,Wunderground v.1.15,2013-10-30 08:46:00,
2013-10-30 09:52:00,63.9,47.9,30.07,NE,38,24.0,24.0,56,0.00,,,0.00,464,Wunderground v.1.15,2013-10-30 08:52:00,
2013-10-30 09:58:00,64.2,47.2,30.07,East,87,22.0,24.0,54,0.00,,,0.00,485,Wunderground v.1.15,2013-10-30 08:58:00,
2013-10-30 10:06:00,64.1,46.6,30.07,ENE,65,24.0,36.0,53,0.00,,,0.00,468,Wunderground v.1.15,2013-10-30 09:06:00,
2013-10-30 10:12:00,64.0,47.0,30.07,East,88,26.0,35.0,54,0.00,,,0.00,462,Wunderground v.1.15,2013-10-30 09:12:00,
2013-10-30 10:18:00,63.9,46.9,30.08,ENE,78,26.0,35.0,54,0.00,,,0.00,462,Wunderground v.1.15,2013-10-30 09:18:00,
2013-10-30 10:26:00,63.9,46.4,30.07,ESE,110,26.0,37.0,53,0.00,,,0.00,504,Wunderground v.1.15,2013-10-30 09:26:00,
2013-10-30 10:32:00,63.9,45.9,30.08,ESE,118,29.0,29.0,52,0.00,,,0.00,492,Wunderground v.1.15,2013-10-30 09:32:00,
2013-10-30 10:38:00,63.9,45.9,30.08,East,89,27.0,36.0,52,0.00,,,0.00,492,Wunderground v.1.15,2013-10-30 09:38:00,
2013-10-30 10:46:00,63.8,45.3,30.08,East,89,27.0,42.0,51,0.00,,,0.00,490,Wunderground v.1.15,2013-10-30 09:46:00,
2013-10-30 10:52:00,63.7,46.2,30.08,East,94,26.0,34.0,53,0.00,,,0.00,471,Wunderground v.1.15,2013-10-30 09:52:00,
2013-10-30 10:58:00,63.9,45.4,30.08,ESE,119,26.0,34.0,51,0.00,,,0.00,506,Wunderground v.1.15,2013-10-30 09:58:00,
2013-10-30 11:06:00,64.0,45.5,30.08,East,84,27.0,27.0,51,0.00,,,0.00,517,Wunderground v.1.15,2013-10-30 10:06:00,
2013-10-30 11:12:00,64.1,45.1,30.08,ESE,115,26.0,28.0,50,0.00,,,0.00,434,Wunderground v.1.15,2013-10-30 10:12:00,
2013-10-30 11:18:00,64.0,46.5,30.09,East,86,24.0,28.0,53,0.00,,,0.00,381,Wunderground v.1.15,2013-10-30 10:18:00,
2013-10-30 11:26:00,63.8,44.3,30.09,East,92,23.0,32.0,49,0.00,,,0.00,432,Wunderground v.1.15,2013-10-30 10:26:00,
2013-10-30 11:32:00,64.2,44.1,30.08,ENE,75,23.0,30.0,48,0.00,,,0.00,373,Wunderground v.1.15,2013-10-30 10:32:00,
2013-10-30 11:38:00,64.0,44.4,30.09,ENE,63,24.0,36.0,49,0.00,,,0.00,492,Wunderground v.1.15,2013-10-30 10:38:00,
2013-10-30 11:44:00,63.8,44.8,30.08,ENE,71,25.0,25.0,50,0.00,,,0.00,316,Wunderground v.1.15,2013-10-30 10:44:00,
2013-10-30 11:50:00,63.7,45.2,30.07,ENE,70,22.0,32.0,51,0.00,,,0.00,287,Wunderground v.1.15,2013-10-30 10:50:00,
2013-10-30 11:56:00,63.3,44.9,30.08,East,82,22.0,32.0,51,0.00,,,0.00,308,Wunderground v.1.15,2013-10-30 10:56:00,
2013-10-30 12:02:00,63.3,45.4,30.08,East,80,23.0,30.0,52,0.00,,,0.00,366,Wunderground v.1.15,2013-10-30 11:02:00,
2013-10-30 12:08:00,63.3,45.9,30.08,NNE,30,23.0,30.0,53,0.00,,,0.00,318,Wunderground v.1.15,2013-10-30 11:08:00,
2013-10-30 12:14:00,63.3,45.4,30.08,ENE,64,22.0,28.0,52,0.00,,,0.00,315,Wunderground v.1.15,2013-10-30 11:14:00,
2013-10-30 12:20:00,63.4,46.9,30.08,East,85,19.0,19.0,55,0.00,,,0.00,332,Wunderground v.1.15,2013-10-30 11:20:00,
2013-10-30 12:26:00,63.5,45.6,30.07,ENE,74,19.0,30.0,52,0.00,,,0.00,357,Wunderground v.1.15,2013-10-30 11:26:00,
2013-10-30 12:32:00,63.5,46.6,30.07,East,96,21.0,23.0,54,0.00,,,0.00,373,Wunderground v.1.15,2013-10-30 11:32:00,
2013-10-30 12:38:00,63.7,45.7,30.07,ENE,71,19.0,30.0,52,0.00,,,0.00,323,Wunderground v.1.15,2013-10-30 11:38:00,
2013-10-30 12:46:00,63.6,45.6,30.07,East,87,20.0,27.0,52,0.00,,,0.00,283,Wunderground v.1.15,2013-10-30 11:46:00,
2013-10-30 12:52:00,63.4,45.5,30.06,SE,136,19.0,21.0,52,0.00,,,0.00,283,Wunderground v.1.15,2013-10-30 11:52:00,
2013-10-30 12:58:00,63.4,44.4,30.07,ENE,78,18.0,32.0,50,0.00,,,0.00,288,Wunderground v.1.15,2013-10-30 11:58:00,
2013-10-30 13:06:00,63.5,44.0,30.06,East,84,22.0,24.0,49,0.00,,,0.00,315,Wunderground v.1.15,2013-10-30 12:06:00,
2013-10-30 13:12:00,63.4,44.4,30.06,East,93,21.0,21.0,50,0.00,,,0.00,295,Wunderground v.1.15,2013-10-30 12:12:00,
2013-10-30 13:18:00,63.5,44.0,30.06,East,82,21.0,34.0,49,0.00,,,0.00,287,Wunderground v.1.15,2013-10-30 12:18:00,
2013-10-30 13:26:00,63.4,45.5,30.06,ENE,75,22.0,33.0,52,0.00,,,0.00,265,Wunderground v.1.15,2013-10-30 12:26:00,
2013-10-30 13:32:00,63.4,45.5,30.05,East,84,21.0,33.0,52,0.00,,,0.00,246,Wunderground v.1.15,2013-10-30 12:32:00,
2013-10-30 13:38:00,63.4,46.0,30.05,East,86,19.0,33.0,53,0.00,,,0.00,230,Wunderground v.1.15,2013-10-30 12:38:00,
2013-10-30 13:46:00,63.3,45.4,30.05,East,83,18.0,26.0,52,0.00,,,0.00,237,Wunderground v.1.15,2013-10-30 12:46:00,
2013-10-30 13:52:00,63.4,45.5,30.05,ENE,57,17.0,19.0,52,0.00,,,0.00,248,Wunderground v.1.15,2013-10-30 12:52:00,
2013-10-30 13:58:00,63.6,46.1,30.05,East,98,15.0,22.0,53,0.00,,,0.00,244,Wunderground v.1.15,2013-10-30 12:58:00,
2013-10-30 14:06:00,63.9,46.4,30.05,East,97,11.0,17.0,53,0.00,,,0.00,229,Wunderground v.1.15,2013-10-30 13:06:00,
2013-10-30 14:12:00,63.9,46.9,30.05,SE,137,11.0,16.0,54,0.00,,,0.00,220,Wunderground v.1.15,2013-10-30 13:12:00,
2013-10-30 14:18:00,64.0,48.0,30.05,NE,51,12.0,22.0,56,0.00,,,0.00,214,Wunderground v.1.15,2013-10-30 13:18:00,
2013-10-30 14:26:00,63.9,47.9,30.05,East,86,14.0,16.0,56,0.00,,,0.00,230,Wunderground v.1.15,2013-10-30 13:26:00,
2013-10-30 14:32:00,63.9,47.4,30.05,NE,46,14.0,20.0,55,0.00,,,0.00,227,Wunderground v.1.15,2013-10-30 13:32:00,
2013-10-30 14:38:00,63.8,47.3,30.05,SE,146,16.0,20.0,55,0.00,,,0.00,221,Wunderground v.1.15,2013-10-30 13:38:00,
2013-10-30 14:44:00,63.9,47.4,30.05,ENE,76,14.0,15.0,55,0.00,,,0.00,211,Wunderground v.1.15,2013-10-30 13:44:00,
2013-10-30 14:50:00,63.8,46.8,30.05,NE,50,14.0,14.0,54,0.00,,,0.00,200,Wunderground v.1.15,2013-10-30 13:50:00,
2013-10-30 14:56:00,63.6,46.1,30.05,NE,50,14.0,15.0,53,0.00,,,0.00,192,Wunderground v.1.15,2013-10-30 13:56:00,
2013-10-30 15:02:00,63.6,45.6,30.05,ENE,78,14.0,15.0,52,0.00,,,0.00,185,Wunderground v.1.15,2013-10-30 14:02:00,
2013-10-30 15:08:00,63.5,45.6,30.05,East,80,15.0,17.0,52,0.00,,,0.00,174,Wunderground v.1.15,2013-10-30 14:08:00,
2013-10-30 15:16:00,63.4,44.9,30.05,ESE,105,14.0,14.0,51,0.00,,,0.00,163,Wunderground v.1.15,2013-10-30 14:16:00,
2013-10-30 15:22:00,63.3,44.3,30.05,East,83,16.0,16.0,50,0.00,,,0.00,165,Wunderground v.1.15,2013-10-30 14:22:00,
2013-10-30 15:28:00,63.3,44.3,30.05,NE,46,15.0,18.0,50,0.00,,,0.00,158,Wunderground v.1.15,2013-10-30 14:28:00,
2013-10-30 15:36:00,63.2,44.8,30.05,ENE,63,16.0,17.0,51,0.00,,,0.00,146,Wunderground v.1.15,2013-10-30 14:36:00,
2013-10-30 15:42:00,63.1,44.7,30.05,NE,40,16.0,16.0,51,0.00,,,0.00,137,Wunderground v.1.15,2013-10-30 14:42:00,
2013-10-30 15:48:00,63.0,44.6,30.05,East,81,15.0,24.0,51,0.00,,,0.00,127,Wunderground v.1.15,2013-10-30 14:48:00,
2013-10-30 15:56:00,62.9,45.0,30.06,ENE,68,13.0,15.0,52,0.00,,,0.00,125,Wunderground v.1.15,2013-10-30 14:56:00,
2013-10-30 16:02:00,62.9,45.0,30.06,ENE,73,11.0,11.0,52,0.00,,,0.00,132,Wunderground v.1.15,2013-10-30 15:02:00,
2013-10-30 16:08:00,62.9,45.0,30.06,East,80,12.0,13.0,52,0.00,,,0.00,128,Wunderground v.1.15,2013-10-30 15:08:00,
2013-10-30 16:16:00,62.8,43.9,30.06,ENE,69,13.0,16.0,50,0.00,,,0.00,114,Wunderground v.1.15,2013-10-30 15:16:00,
2013-10-30 16:22:00,62.8,44.9,30.06,East,93,13.0,16.0,52,0.00,,,0.00,102,Wunderground v.1.15,2013-10-30 15:22:00,
2013-10-30 16:28:00,62.7,45.3,30.07,ENE,70,11.0,18.0,53,0.00,,,0.00,88,Wunderground v.1.15,2013-10-30 15:28:00,
2013-10-30 16:36:00,62.6,45.2,30.07,East,99,10.0,13.0,53,0.00,,,0.00,74,Wunderground v.1.15,2013-10-30 15:36:00,
2013-10-30 16:42:00,62.5,45.1,30.07,ENE,73,10.0,16.0,53,0.00,,,0.00,67,Wunderground v.1.15,2013-10-30 15:42:00,
2013-10-30 16:48:00,62.4,45.0,30.07,ENE,78,10.0,16.0,53,0.00,,,0.00,58,Wunderground v.1.15,2013-10-30 15:48:00,
2013-10-30 16:54:00,62.3,44.9,30.07,East,86,11.0,13.0,53,0.00,,,0.00,49,Wunderground v.1.15,2013-10-30 15:54:00,
2013-10-30 17:00:00,62.3,44.9,30.08,East,79,10.0,10.0,53,0.00,,,0.00,44,Wunderground v.1.15,2013-10-30 16:00:00,
2013-10-30 17:06:00,62.2,44.3,30.07,East,87,9.0,10.0,52,0.00,,,0.00,37,Wunderground v.1.15,2013-10-30 16:06:00,
2013-10-30 17:12:00,62.2,44.3,30.07,ENE,62,10.0,10.0,52,0.00,,,0.00,32,Wunderground v.1.15,2013-10-30 16:12:00,
2013-10-30 17:18:00,62.1,43.7,30.07,East,90,10.0,10.0,51,0.00,,,0.00,26,Wunderground v.1.15,2013-10-30 16:18:00,
2013-10-30 17:26:00,62.1,43.2,30.07,East,86,10.0,11.0,50,0.00,,,0.00,26,Wunderground v.1.15,2013-10-30 16:26:00,
2013-10-30 17:32:00,62.0,43.1,30.07,NE,56,11.0,12.0,50,0.00,,,0.00,16,Wunderground v.1.15,2013-10-30 16:32:00,
2013-10-30 17:38:00,62.0,43.1,30.07,East,87,12.0,15.0,50,0.00,,,0.00,7,Wunderground v.1.15,2013-10-30 16:38:00,
2013-10-30 17:44:00,62.0,43.1,30.07,East,79,11.0,15.0,50,0.00,,,0.00,0,Wunderground v.1.15,2013-10-30 16:44:00,
2013-10-30 17:50:00,61.8,43.5,30.08,East,85,10.0,17.0,51,0.00,,,0.00,0,Wunderground v.1.15,2013-10-30 16:50:00,
2013-10-30 17:56:00,61.8,44.0,30.08,ENE,78,9.0,17.0,52,0.00,,,0.00,0,Wunderground v.1.15,2013-10-30 16:56:00,
2013-10-30 18:02:00,61.6,44.3,30.08,East,80,8.0,9.0,53,0.00,,,0.00,0,Wunderground v.1.15,2013-10-30 17:02:00,
2013-10-30 18:08:00,61.6,44.3,30.08,ENE,65,10.0,12.0,53,0.00,,,0.00,0,Wunderground v.1.15,2013-10-30 17:08:00,
2013-10-30 18:16:00,61.5,45.2,30.08,ENE,66,9.0,12.0,55,0.00,,,0.00,0,Wunderground v.1.15,2013-10-30 17:16:00,
2013-10-30 18:22:00,61.4,45.1,30.09,ENE,70,10.0,14.0,55,0.00,,,0.00,0,Wunderground v.1.15,2013-10-30 17:22:00,
2013-10-30 18:28:00,61.4,45.6,30.09,East,86,10.0,16.0,56,0.00,,,0.00,0,Wunderground v.1.15,2013-10-30 17:28:00,
2013-10-30 18:36:00,61.5,45.2,30.09,ENE,75,11.0,13.0,55,0.00,,,0.00,0,Wunderground v.1.15,2013-10-30 17:36:00,
2013-10-30 18:42:00,61.5,45.2,30.10,East,91,9.0,10.0,55,0.00,,,0.00,0,Wunderground v.1.15,2013-10-30 17:42:00,
2013-10-30 18:48:00,61.4,44.6,30.10,East,98,10.0,16.0,54,0.00,,,0.00,0,Wunderground v.1.15,2013-10-30 17:48:00,
2013-10-30 18:56:00,61.5,45.2,30.10,ENE,76,13.0,17.0,55,0.00,,,0.00,0,Wunderground v.1.15,2013-10-30 17:56:00,
2013-10-30 19:02:00,61.7,45.4,30.10,East,87,13.0,13.0,55,0.00,,,0.00,0,Wunderground v.1.15,2013-10-30 18:02:00,
2013-10-30 19:08:00,61.8,45.5,30.10,East,83,13.0,16.0,55,0.00,,,0.00,0,Wunderground v.1.15,2013-10-30 18:08:00,
2013-10-30 19:16:00,61.8,45.0,30.11,East,88,13.0,14.0,54,0.00,,,0.00,0,Wunderground v.1.15,2013-10-30 18:16:00,
2013-10-30 19:22:00,61.8,45.0,30.11,ENE,64,11.0,16.0,54,0.00,,,0.00,0,Wunderground v.1.15,2013-10-30 18:22:00,
2013-10-30 19:28:00,61.7,44.9,30.11,East,86,10.0,16.0,54,0.00,,,0.00,0,Wunderground v.1.15,2013-10-30 18:28:00,
2013-10-30 19:36:00,61.6,45.3,30.12,East,84,10.0,16.0,55,0.00,,,0.00,0,Wunderground v.1.15,2013-10-30 18:36:00,
2013-10-30 19:42:00,61.5,45.7,30.12,East,88,11.0,11.0,56,0.00,,,0.00,0,Wunderground v.1.15,2013-10-30 18:42:00,
2013-10-30 19:48:00,61.5,45.7,30.11,ENE,78,11.0,16.0,56,0.00,,,0.00,0,Wunderground v.1.15,2013-10-30 18:48:00,
2013-10-30 19:56:00,61.4,45.6,30.12,ESE,102,12.0,17.0,56,0.00,,,0.00,0,Wunderground v.1.15,2013-10-30 18:56:00,
2013-10-30 20:02:00,61.4,45.6,30.12,ENE,71,10.0,13.0,56,0.00,,,0.00,0,Wunderground v.1.15,2013-10-30 19:02:00,
2013-10-30 20:08:00,61.3,45.9,30.12,East,86,10.0,17.0,57,0.00,,,0.00,0,Wunderground v.1.15,2013-10-30 19:08:00,
2013-10-30 20:16:00,61.2,45.8,30.12,East,83,10.0,14.0,57,0.00,,,0.00,0,Wunderground v.1.15,2013-10-30 19:16:00,
2013-10-30 20:22:00,61.3,45.9,30.12,ENE,71,11.0,11.0,57,0.00,,,0.00,0,Wunderground v.1.15,2013-10-30 19:22:00,
2013-10-30 20:28:00,61.3,45.9,30.12,ENE,72,9.0,11.0,57,0.00,,,0.00,0,Wunderground v.1.15,2013-10-30 19:28:00,
2013-10-30 20:36:00,61.1,45.7,30.12,ENE,77,6.0,8.0,57,0.00,,,0.00,0,Wunderground v.1.15,2013-10-30 19:36:00,
2013-10-30 20:42:00,61.0,45.7,30.12,ENE,77,7.0,11.0,57,0.00,,,0.00,0,Wunderground v.1.15,2013-10-30 19:42:00,
2013-10-30 20:48:00,61.0,46.1,30.12,ENE,74,8.0,11.0,58,0.00,,,0.00,0,Wunderground v.1.15,2013-10-30 19:48:00,
2013-10-30 20:56:00,61.1,46.7,30.12,ENE,58,8.0,10.0,59,0.00,,,0.00,0,Wunderground v.1.15,2013-10-30 19:56:00,
2013-10-30 21:02:00,61.1,47.1,30.12,East,80,7.0,7.0,60,0.00,,,0.00,0,Wunderground v.1.15,2013-10-30 20:02:00,
2013-10-30 21:08:00,61.1,47.1,30.13,East,83,7.0,7.0,60,0.00,,,0.00,0,Wunderground v.1.15,2013-10-30 20:08:00,
2013-10-30 21:16:00,61.0,47.4,30.13,East,79,5.0,7.0,61,0.00,,,0.00,0,Wunderground v.1.15,2013-10-30 20:16:00,
2013-10-30 21:22:00,61.0,47.4,30.13,East,82,5.0,5.0,61,0.00,,,0.00,0,Wunderground v.1.15,2013-10-30 20:22:00,
2013-10-30 21:28:00,61.0,47.4,30.13,East,84,6.0,11.0,61,0.00,,,0.00,0,Wunderground v.1.15,2013-10-30 20:28:00,
2013-10-30 21:36:00,61.2,47.6,30.13,NE,55,6.0,7.0,61,0.00,,,0.00,0,Wunderground v.1.15,2013-10-30 20:36:00,
2013-10-30 21:42:00,61.3,48.2,30.13,ENE,69,5.0,11.0,62,0.00,,,0.00,0,Wunderground v.1.15,2013-10-30 20:42:00,
2013-10-30 21:48:00,61.4,47.4,30.13,ENE,64,8.0,11.0,60,0.00,,,0.00,0,Wunderground v.1.15,2013-10-30 20:48:00,
2013-10-30 21:56:00,61.4,46.9,30.13,ESE,103,6.0,8.0,59,0.00,,,0.00,0,Wunderground v.1.15,2013-10-30 20:56:00,
2013-10-30 22:02:00,61.3,47.3,30.13,East,82,6.0,7.0,60,0.00,,,0.00,0,Wunderground v.1.15,2013-10-30 21:02:00,
2013-10-30 22:08:00,61.1,47.1,30.14,ENE,76,6.0,7.0,60,0.00,,,0.00,0,Wunderground v.1.15,2013-10-30 21:08:00,
2013-10-30 22:16:00,60.8,46.8,30.14,ENE,74,6.0,8.0,60,0.00,,,0.00,0,Wunderground v.1.15,2013-10-30 21:16:00,
2013-10-30 22:22:00,60.8,47.3,30.14,ENE,63,6.0,8.0,61,0.00,,,0.00,0,Wunderground v.1.15,2013-10-30 21:22:00,
2013-10-30 22:28:00,60.9,47.4,30.14,ENE,73,7.0,8.0,61,0.00,,,0.00,0,Wunderground v.1.15,2013-10-30 21:28:00,
2013-10-30 22:36:00,60.9,47.8,30.14,East,80,6.0,10.0,62,0.00,,,0.00,0,Wunderground v.1.15,2013-10-30 21:36:00,
2013-10-30 22:42:00,60.8,47.7,30.14,East,94,7.0,10.0,62,0.00,,,0.00,0,Wunderground v.1.15,2013-10-30 21:42:00,
2013-10-30 22:48:00,60.8,47.3,30.14,ENE,74,6.0,10.0,61,0.00,,,0.00,0,Wunderground v.1.15,2013-10-30 21:48:00,
2013-10-30 22:56:00,60.5,47.4,30.14,ENE,74,6.0,7.0,62,0.00,,,0.00,0,Wunderground v.1.15,2013-10-30 21:56:00,
2013-10-30 23:02:00,60.4,47.3,30.14,ENE,78,5.0,6.0,62,0.00,,,0.00,0,Wunderground v.1.15,2013-10-30 22:02:00,
2013-10-30 23:08:00,60.3,47.2,30.14,ENE,61,5.0,6.0,62,0.00,,,0.00,0,Wunderground v.1.15,2013-10-30 22:08:00,
2013-10-30 23:16:00,60.2,46.7,30.14,ENE,69,4.0,7.0,61,0.00,,,0.00,0,Wunderground v.1.15,2013-10-30 22:16:00,
2013-10-30 23:22:00,60.2,46.7,30.14,East,80,5.0,6.0,61,0.00,,,0.00,0,Wunderground v.1.15,2013-10-30 22:22:00,
2013-10-30 23:28:00,60.1,46.2,30.14,ENE,78,5.0,6.0,60,0.00,,,0.00,0,Wunderground v.1.15,2013-10-30 22:28:00,
2013-10-30 23:36:00,60.1,45.7,30.14,ENE,71,5.0,5.0,59,0.00,,,0.00,0,Wunderground v.1.15,2013-10-30 22:36:00,
2013-10-30 23:42:00,60.1,45.7,30.14,ENE,72,5.0,7.0,59,0.00,,,0.00,0,Wunderground v.1.15,2013-10-30 22:42:00,
2013-10-30 23:48:00,60.1,45.7,30.14,ENE,69,5.0,7.0,59,0.00,,,0.00,0,Wunderground v.1.15,2013-10-30 22:48:00,